• In Uzbekistan
  • List of Countries
  • For 7 days
  • Water Temperature
  • Weather Map
  • Weather Widgets
  • user-avatar
    Login

    Hourly Weather Sydney

    Today, 15 October, Tuesday

    Time Temperature Precipitation Wind Pressure Humidity
    00:00 +16°C° 0 mm 2 mps 759 mmHg 77%
    01:00 +16°C° 0 mm 2 mps 759 mmHg 78%
    02:00 +16°C° 0 mm 1 mps 759 mmHg 80%
    03:00 +15°C° 0 mm 1 mps 759 mmHg 81%
    04:00 +15°C° 0 mm 1 mps 758 mmHg 85%
    05:00 +16°C° 0 mm 1 mps 759 mmHg 80%
    06:00 +18°C° 0 mm 1 mps 759 mmHg 75%
    07:00 +19°C° 0 mm 1 mps 759 mmHg 71%
    08:00 +22°C° 0 mm 1 mps 759 mmHg 59%
    09:00 +25°C° 0 mm 2 mps 758 mmHg 48%
    10:00 +28°C° 0 mm 1 mps 758 mmHg 36%
    11:00 +28°C° 0 mm 3 mps 758 mmHg 35%
    12:00 +29°C° 0 mm 4 mps 757 mmHg 34%
    13:00 +30°C° 0 mm 5 mps 757 mmHg 33%
    14:00 +28°C° 0 mm 6 mps 756 mmHg 39%
    15:00 +27°C° 0 mm 6 mps 756 mmHg 45%
    16:00 +26°C° 0 mm 7 mps 756 mmHg 50%
    17:00 +24°C° 0 mm 6 mps 756 mmHg 59%
    18:00 +22°C° 0 mm 6 mps 756 mmHg 68%
    19:00 +20°C° 0 mm 5 mps 757 mmHg 77%
    20:00 +20°C° 0 mm 4 mps 757 mmHg 80%
    21:00 +19°C° 0 mm 3 mps 757 mmHg 84%
    22:00 +19°C° 0 mm 2 mps 758 mmHg 87%
    23:00 +18°C° 0 mm 2 mps 757 mmHg 88%

    Tomorrow, 16 October, Wednesday

    Time Temperature Precipitation Wind Pressure Humidity
    00:00 +18°C° 0 mm 2 mps 757 mmHg 88%
    01:00 +18°C° 0 mm 1 mps 757 mmHg 89%
    02:00 +17°C° 0 mm 2 mps 757 mmHg 90%
    03:00 +17°C° 0 mm 4 mps 757 mmHg 91%
    04:00 +15°C° 0 mm 5 mps 757 mmHg 91%
    05:00 +17°C° 0 mm 4 mps 757 mmHg 88%
    06:00 +18°C° 0 mm 4 mps 758 mmHg 84%
    07:00 +18°C° 0 mm 4 mps 758 mmHg 81%
    08:00 +21°C° 0 mm 3 mps 758 mmHg 70%
    09:00 +24°C° 0 mm 3 mps 758 mmHg 60%
    10:00 +26°C° 0 mm 2 mps 757 mmHg 50%
    11:00 +27°C° 0 mm 3 mps 757 mmHg 48%
    12:00 +28°C° 0 mm 3 mps 756 mmHg 46%
    13:00 +29°C° 0 mm 3 mps 756 mmHg 44%
    14:00 +27°C° 0 mm 4 mps 756 mmHg 51%
    15:00 +25°C° 0 mm 4 mps 755 mmHg 58%
    16:00 +22°C° 0 mm 5 mps 755 mmHg 65%
    17:00 +21°C° 0.3 mm 4 mps 755 mmHg 71%
    18:00 +20°C° 0.3 mm 4 mps 756 mmHg 77%
    19:00 +19°C° 0.3 mm 4 mps 756 mmHg 83%
    20:00 +19°C° 0.1 mm 5 mps 756 mmHg 84%
    21:00 +19°C° 0.1 mm 6 mps 756 mmHg 85%
    22:00 +17°C° 0.1 mm 6 mps 755 mmHg 86%
    23:00 +17°C° 0.2 mm 5 mps 755 mmHg 87%

    Day after tomorrow, 17 October, Thursday

    Time Temperature Precipitation Wind Pressure Humidity
    00:00 +17°C° 0.2 mm 5 mps 754 mmHg 88%
    01:00 +18°C° 0.2 mm 4 mps 753 mmHg 89%
    02:00 +18°C° 0.3 mm 3 mps 753 mmHg 91%
    03:00 +18°C° 0.3 mm 3 mps 753 mmHg 92%
    04:00 +17°C° 0.3 mm 2 mps 752 mmHg 93%
    05:00 +18°C° 0 mm 2 mps 753 mmHg 90%
    06:00 +18°C° 0 mm 2 mps 753 mmHg 87%
    07:00 +19°C° 0 mm 2 mps 753 mmHg 85%
    08:00 +21°C° 0 mm 3 mps 753 mmHg 67%
    09:00 +25°C° 0 mm 3 mps 754 mmHg 49%
    10:00 +27°C° 0 mm 4 mps 754 mmHg 31%
    11:00 +27°C° 0 mm 6 mps 754 mmHg 28%
    12:00 +26°C° 0 mm 8 mps 754 mmHg 26%
    13:00 +24°C° 0 mm 9 mps 754 mmHg 23%
    14:00 +24°C° 0 mm 9 mps 755 mmHg 21%
    15:00 +23°C° 0 mm 8 mps 755 mmHg 19%
    16:00 +23°C° 0 mm 8 mps 755 mmHg 17%
    17:00 +21°C° 0 mm 7 mps 756 mmHg 21%
    18:00 +20°C° 0 mm 6 mps 757 mmHg 24%
    19:00 +17°C° 0 mm 6 mps 758 mmHg 28%
    20:00 +16°C° 0 mm 6 mps 759 mmHg 32%
    21:00 +15°C° 0 mm 6 mps 760 mmHg 35%
    22:00 +14°C° 0 mm 5 mps 761 mmHg 39%
    23:00 +13°C° 0 mm 5 mps 761 mmHg 42%

    18 October, Friday

    Time Temperature Precipitation Wind Pressure Humidity
    00:00 +13°C° 0 mm 5 mps 761 mmHg 45%
    01:00 +12°C° 0 mm 5 mps 761 mmHg 48%
    02:00 +12°C° 0 mm 4 mps 761 mmHg 50%
    03:00 +11°C° 0 mm 4 mps 761 mmHg 52%
    04:00 +11°C° 0 mm 4 mps 761 mmHg 54%
    05:00 +12°C° 0 mm 3 mps 762 mmHg 50%
    06:00 +13°C° 0 mm 3 mps 762 mmHg 47%
    07:00 +15°C° 0 mm 2 mps 762 mmHg 43%
    08:00 +17°C° 0 mm 2 mps 762 mmHg 37%
    09:00 +20°C° 0 mm 2 mps 762 mmHg 31%
    10:00 +23°C° 0 mm 2 mps 761 mmHg 25%
    11:00 +25°C° 0 mm 3 mps 761 mmHg 21%
    12:00 +27°C° 0 mm 4 mps 760 mmHg 17%
    13:00 +29°C° 0 mm 4 mps 760 mmHg 13%
    14:00 +29°C° 0 mm 5 mps 759 mmHg 15%
    15:00 +28°C° 0 mm 5 mps 758 mmHg 16%
    16:00 +28°C° 0 mm 5 mps 758 mmHg 18%
    17:00 +26°C° 0 mm 4 mps 758 mmHg 21%
    18:00 +23°C° 0 mm 4 mps 759 mmHg 25%
    19:00 +22°C° 0 mm 3 mps 759 mmHg 28%
    20:00 +21°C° 0 mm 3 mps 759 mmHg 29%
    21:00 +20°C° 0 mm 4 mps 759 mmHg 31%
    22:00 +19°C° 0 mm 4 mps 759 mmHg 32%
    23:00 +18°C° 0 mm 4 mps 759 mmHg 33%

    19 October, Saturday

    Time Temperature Precipitation Wind Pressure Humidity
    00:00 +17°C° 0 mm 4 mps 758 mmHg 33%
    01:00 +17°C° 0 mm 4 mps 758 mmHg 34%
    02:00 +15°C° 0 mm 4 mps 758 mmHg 35%
    03:00 +14°C° 0 mm 4 mps 758 mmHg 35%
    04:00 +14°C° 0 mm 4 mps 758 mmHg 36%
    05:00 +15°C° 0 mm 4 mps 759 mmHg 35%
    06:00 +17°C° 0 mm 3 mps 759 mmHg 34%
    07:00 +18°C° 0 mm 3 mps 759 mmHg 33%
    08:00 +20°C° 0 mm 4 mps 759 mmHg 29%
    09:00 +23°C° 0 mm 4 mps 759 mmHg 25%
    10:00 +26°C° 0 mm 5 mps 758 mmHg 21%
    11:00 +27°C° 0 mm 6 mps 758 mmHg 19%
    12:00 +27°C° 0 mm 6 mps 758 mmHg 18%
    13:00 +28°C° 0 mm 7 mps 758 mmHg 16%
    14:00 +27°C° 0 mm 7 mps 758 mmHg 17%
    15:00 +26°C° 0 mm 8 mps 759 mmHg 18%
    16:00 +24°C° 0 mm 8 mps 759 mmHg 20%
    17:00 +22°C° 0 mm 8 mps 760 mmHg 25%
    18:00 +20°C° 0 mm 8 mps 761 mmHg 29%
    19:00 +17°C° 0 mm 7 mps 762 mmHg 34%
    20:00 +16°C° 0 mm 7 mps 763 mmHg 37%
    21:00 +15°C° 0 mm 7 mps 764 mmHg 39%
    22:00 +14°C° 0 mm 7 mps 765 mmHg 41%
    23:00 +13°C° 0 mm 6 mps 765 mmHg 43%

    20 October, Sunday

    Time Temperature Precipitation Wind Pressure Humidity
    00:00 +12°C° 0 mm 5 mps 765 mmHg 45%
    01:00 +12°C° 0 mm 3 mps 765 mmHg 47%
    02:00 +12°C° 0 mm 3 mps 766 mmHg 47%
    03:00 +12°C° 0 mm 3 mps 766 mmHg 47%
    04:00 +12°C° 0 mm 3 mps 766 mmHg 47%
    05:00 +13°C° 0 mm 2 mps 766 mmHg 46%
    06:00 +14°C° 0 mm 2 mps 767 mmHg 45%
    07:00 +14°C° 0 mm 2 mps 767 mmHg 44%
    08:00 +14°C° 0.1 mm 3 mps 767 mmHg 48%
    09:00 +16°C° 0.1 mm 3 mps 767 mmHg 51%
    10:00 +17°C° 0.1 mm 3 mps 767 mmHg 54%
    11:00 +17°C° 0.1 mm 3 mps 767 mmHg 56%
    12:00 +17°C° 0.1 mm 3 mps 767 mmHg 58%
    13:00 +17°C° 0.1 mm 4 mps 767 mmHg 60%
    14:00 +18°C° 0 mm 4 mps 767 mmHg 59%
    15:00 +18°C° 0 mm 4 mps 767 mmHg 57%
    16:00 +19°C° 0 mm 4 mps 767 mmHg 55%
    17:00 +17°C° 0 mm 4 mps 767 mmHg 62%
    18:00 +16°C° 0 mm 3 mps 768 mmHg 69%
    19:00 +14°C° 0 mm 3 mps 768 mmHg 75%
    20:00 +15°C° 0 mm 2 mps 769 mmHg 76%
    21:00 +15°C° 0 mm 2 mps 769 mmHg 77%
    22:00 +14°C° 0 mm 1 mps 770 mmHg 78%
    23:00 +15°C° 0 mm 1 mps 770 mmHg 76%
    Show more